Погода в Тополево

Россия / Хабаровский край     48°30′25″N   135°10′25″E
темп.,
°C
ветер,
м/с
пор.,
м/с
влажн.,
%
обл.,
%
осадки,
мм/ч
давл.,
гПа
погр.,
м
7 марта, вс
вс701:00−18зюз613790 0.0 1028271
04:00−19юз511840 0.0 1028219
07:00−20юз510928 0.0 1027186
10:00−15юз6138554 0.0 1026533
13:00−12юз71181100 0.0 1024766
16:00−10зюз61182100 0.0 1023768
19:00−12зюз4108499 0.0 1022287
22:00−14юз598980 0.0 1023174
8 марта, пн
пн801:00−15юз510920 0.0 1022184
04:00−15зюз510900 0.0 1023210
07:00−17юз49900 0.0 1025169
10:00−13зюз510850 0.0 1026367
13:00−9юз58840 0.0 1025454
16:00−8зюз59850 0.0 1024574
19:00−12юз349020 0.0 102347
22:00−13ююз349223 0.0 102453
9 марта, вт
вт901:00−11ю4791100 0.0 1021149
04:00−10ю4108993 0.0 1019227
07:00−10ю368968 0.0 1016136
10:00−6ююз5128380 0.0 1013462
13:00−2юз588026 0.0 1009915
16:00−1юз6108662 0.1 10071119
19:00−6з5119298 0.3 1007358
22:00−4сз489794 1.6 1010413
10 марта, ср
ср1001:00−8ссз489595 0.4 1013167
04:00−10зсз349251 0.4 101834
07:00−13зюз469015 0.0 102291
10:00−9зюз368536 0.0 1024227
13:00−6зюз46850 0.0 1024410
16:00−4зюз58810 0.0 1023507
19:00−7ююз468740 0.0 1023143
22:00−7ююз498971 0.0 1024187
11 марта, чт
чт1101:00−6ююз41286100 0.0 1023331
04:00−7юз5138595 0.0 1022285
07:00−9зюз5108917 0.0 1023187
10:00−6зюз612858 0.0 1024404
13:00−3з46840 0.0 1026427
16:00−2зюз35830 0.0 1026537
19:00−6юз23888 0.0 102724
22:00−8ююз238846 0.0 102821